When you browse on this site, cookies collect data to enhance your experience and personalize the content and advertising you see.
Visit our Privacy Policy to learn more. By continuing to use the site, you agree to this use of cookies and data.
  • In Hungary
  • List of Countries
  • For 7 days
  • Water Temperature
  • Satellite Maps
  • Weather Map
  • News
  • Weather Widgets
  • user-avatar
    Login

    Hourly Weather Tatrzańska Łomnica

    Today, 25 June, Tuesday

    Time Temperature Precipitation Wind Pressure Humidity
    00:00 +16°C° 0 mm 1 mps 704 mmHg 97%
    01:00 +16°C° 0 mm 1 mps 704 mmHg 97%
    02:00 +15°C° 0 mm 1 mps 704 mmHg 97%
    03:00 +15°C° 0 mm 1 mps 704 mmHg 96%
    04:00 +15°C° 0 mm 1 mps 704 mmHg 96%
    05:00 +16°C° 0 mm 0 mps 704 mmHg 90%
    06:00 +18°C° 0 mm 0 mps 705 mmHg 84%
    07:00 +21°C° 0 mm 0 mps 706 mmHg 77%
    08:00 +22°C° 0 mm 0 mps 706 mmHg 70%
    09:00 +26°C° 0 mm 1 mps 706 mmHg 64%
    10:00 +27°C° 0 mm 1 mps 707 mmHg 57%
    11:00 +28°C° 0 mm 1 mps 707 mmHg 54%
    12:00 +29°C° 0 mm 1 mps 707 mmHg 51%
    13:00 +29°C° 0 mm 2 mps 707 mmHg 47%
    14:00 +29°C° 0 mm 2 mps 707 mmHg 49%
    15:00 +29°C° 0 mm 2 mps 707 mmHg 52%
    16:00 +29°C° 0 mm 2 mps 706 mmHg 54%
    17:00 +27°C° 0 mm 1 mps 706 mmHg 62%
    18:00 +25°C° 0 mm 1 mps 706 mmHg 70%
    19:00 +23°C° 0 mm 1 mps 706 mmHg 78%
    20:00 +22°C° 0 mm 1 mps 706 mmHg 80%
    21:00 +21°C° 0 mm 1 mps 706 mmHg 82%
    22:00 +20°C° 0 mm 1 mps 706 mmHg 84%
    23:00 +20°C° 0 mm 1 mps 706 mmHg 83%

    Tomorrow, 26 June, Wednesday

    Time Temperature Precipitation Wind Pressure Humidity
    00:00 +19°C° 0 mm 1 mps 706 mmHg 82%
    01:00 +19°C° 0 mm 1 mps 706 mmHg 82%
    02:00 +19°C° 0 mm 1 mps 706 mmHg 80%
    03:00 +18°C° 0 mm 1 mps 705 mmHg 79%
    04:00 +18°C° 0 mm 1 mps 705 mmHg 78%
    05:00 +21°C° 0 mm 1 mps 706 mmHg 73%
    06:00 +21°C° 0 mm 0 mps 706 mmHg 68%
    07:00 +23°C° 0 mm 0 mps 707 mmHg 63%
    08:00 +25°C° 0 mm 0 mps 707 mmHg 57%
    09:00 +28°C° 0 mm 1 mps 707 mmHg 52%
    10:00 +30°C° 0 mm 1 mps 707 mmHg 47%
    11:00 +30°C° 0 mm 1 mps 707 mmHg 46%
    12:00 +31°C° 0 mm 1 mps 707 mmHg 46%
    13:00 +31°C° 0 mm 1 mps 707 mmHg 45%
    14:00 +31°C° 0 mm 1 mps 706 mmHg 48%
    15:00 +31°C° 0 mm 1 mps 706 mmHg 51%
    16:00 +30°C° 0 mm 1 mps 705 mmHg 54%
    17:00 +28°C° 0 mm 1 mps 705 mmHg 62%
    18:00 +27°C° 0 mm 1 mps 704 mmHg 70%
    19:00 +25°C° 0 mm 1 mps 704 mmHg 79%
    20:00 +24°C° 0 mm 1 mps 703 mmHg 82%
    21:00 +22°C° 0 mm 1 mps 703 mmHg 85%
    22:00 +21°C° 0 mm 1 mps 703 mmHg 88%
    23:00 +21°C° 0 mm 1 mps 703 mmHg 87%

    Day after tomorrow, 27 June, Thursday

    Time Temperature Precipitation Wind Pressure Humidity
    00:00 +20°C° 0 mm 1 mps 702 mmHg 87%
    01:00 +20°C° 0 mm 1 mps 702 mmHg 86%
    02:00 +20°C° 0.2 mm 1 mps 702 mmHg 87%
    03:00 +20°C° 0.2 mm 1 mps 701 mmHg 88%
    04:00 +19°C° 0.2 mm 2 mps 701 mmHg 88%
    05:00 +21°C° 0.7 mm 1 mps 701 mmHg 87%
    06:00 +23°C° 0.7 mm 1 mps 701 mmHg 85%
    07:00 +24°C° 0.7 mm 1 mps 701 mmHg 84%
    08:00 +25°C° 1.4 mm 2 mps 701 mmHg 83%
    09:00 +25°C° 1.4 mm 2 mps 701 mmHg 82%
    10:00 +26°C° 1.4 mm 3 mps 701 mmHg 81%
    11:00 +25°C° 1 mm 3 mps 701 mmHg 81%
    12:00 +25°C° 1 mm 3 mps 701 mmHg 80%
    13:00 +23°C° 1 mm 4 mps 700 mmHg 79%
    14:00 +23°C° 0.1 mm 4 mps 700 mmHg 72%
    15:00 +23°C° 0.1 mm 4 mps 700 mmHg 65%
    16:00 +23°C° 0.1 mm 5 mps 700 mmHg 57%
    17:00 +21°C° 0 mm 4 mps 699 mmHg 61%
    18:00 +19°C° 0 mm 4 mps 699 mmHg 65%
    19:00 +17°C° 0 mm 3 mps 699 mmHg 68%
    20:00 +14°C° 0 mm 3 mps 699 mmHg 73%
    21:00 +13°C° 0 mm 3 mps 699 mmHg 77%
    22:00 +12°C° 0 mm 3 mps 699 mmHg 81%
    23:00 +12°C° 0 mm 3 mps 699 mmHg 85%

    28 June, Friday

    Time Temperature Precipitation Wind Pressure Humidity
    00:00 +13°C° 0 mm 2 mps 699 mmHg 88%
    01:00 +12°C° 0 mm 2 mps 699 mmHg 91%
    02:00 +13°C° 0.1 mm 2 mps 700 mmHg 92%
    03:00 +13°C° 0.1 mm 2 mps 700 mmHg 92%
    04:00 +13°C° 0.1 mm 2 mps 700 mmHg 92%
    05:00 +13°C° 0.3 mm 2 mps 700 mmHg 92%
    06:00 +14°C° 0.3 mm 2 mps 700 mmHg 92%
    07:00 +14°C° 0.3 mm 2 mps 700 mmHg 92%
    08:00 +14°C° 0.3 mm 3 mps 700 mmHg 86%
    09:00 +16°C° 0.3 mm 3 mps 701 mmHg 80%
    10:00 +17°C° 0.3 mm 4 mps 701 mmHg 73%
    11:00 +18°C° 0 mm 4 mps 701 mmHg 66%
    12:00 +19°C° 0 mm 4 mps 701 mmHg 59%
    13:00 +20°C° 0 mm 4 mps 701 mmHg 51%
    14:00 +19°C° 0 mm 4 mps 701 mmHg 54%
    15:00 +19°C° 0 mm 4 mps 701 mmHg 56%
    16:00 +19°C° 0 mm 4 mps 701 mmHg 59%
    17:00 +18°C° 0 mm 3 mps 701 mmHg 66%
    18:00 +16°C° 0 mm 2 mps 700 mmHg 74%
    19:00 +15°C° 0 mm 2 mps 700 mmHg 82%
    20:00 +15°C° 0.1 mm 2 mps 700 mmHg 85%
    21:00 +14°C° 0.1 mm 2 mps 701 mmHg 88%
    22:00 +13°C° 0.1 mm 2 mps 701 mmHg 91%
    23:00 +13°C° 0.2 mm 1 mps 701 mmHg 92%

    29 June, Saturday

    Time Temperature Precipitation Wind Pressure Humidity
    00:00 +12°C° 0.2 mm 1 mps 701 mmHg 94%
    01:00 +12°C° 0.2 mm 1 mps 701 mmHg 95%
    02:00 +11°C° 0 mm 1 mps 701 mmHg 95%
    03:00 +9°C° 0 mm 2 mps 701 mmHg 95%
    04:00 +9°C° 0 mm 2 mps 701 mmHg 95%
    05:00 +10°C° 0 mm 2 mps 701 mmHg 87%
    06:00 +12°C° 0 mm 2 mps 701 mmHg 79%
    07:00 +13°C° 0 mm 2 mps 702 mmHg 70%
    08:00 +13°C° 0 mm 3 mps 702 mmHg 64%
    09:00 +15°C° 0 mm 4 mps 702 mmHg 58%
    10:00 +17°C° 0 mm 4 mps 703 mmHg 52%
    11:00 +18°C° 0 mm 4 mps 703 mmHg 53%
    12:00 +18°C° 0 mm 4 mps 703 mmHg 53%
    13:00 +19°C° 0 mm 4 mps 702 mmHg 54%
    14:00 +19°C° 0 mm 4 mps 702 mmHg 55%
    15:00 +19°C° 0 mm 4 mps 702 mmHg 57%
    16:00 +19°C° 0 mm 4 mps 702 mmHg 58%
    17:00 +18°C° 0 mm 3 mps 702 mmHg 65%
    18:00 +16°C° 0 mm 2 mps 701 mmHg 73%
    19:00 +15°C° 0 mm 1 mps 701 mmHg 80%
    20:00 +14°C° 0 mm 1 mps 701 mmHg 83%
    21:00 +13°C° 0 mm 1 mps 701 mmHg 85%
    22:00 +12°C° 0 mm 1 mps 701 mmHg 87%
    23:00 +12°C° 0 mm 1 mps 701 mmHg 86%

    30 June, Sunday

    Time Temperature Precipitation Wind Pressure Humidity
    00:00 +11°C° 0 mm 1 mps 701 mmHg 85%
    01:00 +11°C° 0 mm 1 mps 701 mmHg 84%
    02:00 +11°C° 0 mm 1 mps 701 mmHg 83%
    03:00 +11°C° 0 mm 1 mps 701 mmHg 82%
    04:00 +11°C° 0 mm 1 mps 701 mmHg 81%
    05:00 +13°C° 0 mm 1 mps 701 mmHg 75%
    06:00 +16°C° 0 mm 1 mps 702 mmHg 69%
    07:00 +19°C° 0 mm 1 mps 702 mmHg 63%
    08:00 +21°C° 0 mm 1 mps 703 mmHg 58%
    09:00 +23°C° 0 mm 1 mps 703 mmHg 53%
    10:00 +25°C° 0 mm 1 mps 703 mmHg 48%
    11:00 +25°C° 0 mm 1 mps 703 mmHg 47%
    12:00 +26°C° 0 mm 1 mps 703 mmHg 46%
    13:00 +27°C° 0 mm 1 mps 703 mmHg 45%
    14:00 +27°C° 0 mm 1 mps 702 mmHg 48%
    15:00 +27°C° 0 mm 1 mps 702 mmHg 50%
    16:00 +27°C° 0 mm 1 mps 702 mmHg 53%
    17:00 +25°C° 0 mm 1 mps 702 mmHg 63%
    18:00 +23°C° 0 mm 1 mps 701 mmHg 73%
    19:00 +21°C° 0 mm 1 mps 701 mmHg 83%
    20:00 +20°C° 0 mm 1 mps 701 mmHg 86%
    21:00 +18°C° 0 mm 2 mps 700 mmHg 90%
    22:00 +16°C° 0 mm 2 mps 700 mmHg 93%
    23:00 +16°C° 0 mm 2 mps 700 mmHg 91%
    Show more